ZKPY/FNJ METAR and TAF weather

Enter ICAO airport designator
Station Type Date Time Source
ZKPY METAR 2014/10/31 02:00 UTC NOAA

ZKPY 310200Z 0000MPS 5000 BR SCT200 17/06 Q1019 NOSIG


Station Type Date Time Source
ZKPY Decoded METAR 2014/10/31 02:00 UTC NOAA

Pyongyang, Korea, North (ZKPY) 39-02N 125-47E 38M
Oct 30, 2014 - 10:00 PM EDT / 2014.10.31 0200 UTC
Visibility: 3 mile(s):0
Sky conditions: partly cloudy
Weather: mist
Temperature: 62 F (17 C)
Dew Point: 42 F (6 C)
Relative Humidity: 48%
Pressure (altimeter): 30.09 in. Hg (1019 hPa)
ob: ZKPY 310200Z 0000MPS 5000 BR SCT200 17/06 Q1019 NOSIG
cycle: 2

Station Type Date Time Source
ZKPY TAF 2020/07/03 06:48 UTC NOAA

TAF TAF ZKPY 030430Z 0306/0406 15004MPS 9999 OVC027 TX29/0306Z TN19/0321Z
BECMG 0308/0310 35003MPS
TEMPO 0309/0314 4000 -TSRA SCT010CB BKN020
TEMPO 0320/0324 1500 BR

Example: see airport list